Miscellaneous Local Product
Issued by NWS North Platte, NE

Home | Current Version | Previous Version | Graphics & Text | Print | Product List | Glossary On
Versions: 1 2 3 4 5 6 7 8 9 10 11 12 13 14 15 16 17 18 19 20 21 22 23 24 25 26 27 28 29 30 31 32 33 34 35 36 37 38 39 40 41 42 43 44 45 46 47 48 49 50
000
AXUS43 KLBF 220410
MISLBF


WESTERN AND NORTH CENTRAL NEBRASKA HOURLY WEATHER ROUNDUP
NATIONAL WEATHER SERVICE NORTH PLATTE NE
1100 PM CDT SUN MAY 21 2017

NOTE: "FAIR" INDICATES FEW OR NO CLOUDS BELOW 12,000 FEET WITH NO
SIGNIFICANT WEATHER AND/OR OBSTRUCTIONS TO VISIBILITY.

NOTE: STATIONS NOT REPORTING VARIABLES SUCH AS SKY/WEATHER OR
PRESSURE ARE PROVIDED BY RAWS AND APRS NETWORKS AND ARE NOT UNDER
NATIONAL WEATHER SERVICE QUALITY CONTROL.

...OBSERVATIONS IN AND NEAR THE EASTERN PANHANDLE OF NEBRASKA...

CITY           SKY/WX    TMP DP  RH WIND       PRES   REMARKS
PINE RIDGE     CLEAR     46  44  93 SW5       30.13R
GORDON         FAIR      46  42  86 W7        30.12S
CHADRON        CLEAR     44  42  93 SW8       30.15S
ALLIANCE       CLEAR     38  37  97 W8        30.17R WCI  32
SIDNEY         CLOUDY    41  39  93 W6        30.21R
CRESCENT LAKE    N/A     46  42  85 W6          N/A
$$

...OBSERVATIONS IN NORTHERN NEBRASKA AND FAR SOUTHERN SOUTH DAKOTA...

CITY           SKY/WX    TMP DP  RH WIND       PRES   REMARKS
WINNER         MOCLDY    55  45  68 W8        30.02R
VALENTINE      CLOUDY    56  42  59 W10       30.07R
THEDFORD       CLOUDY    52  49  88 NW8       30.12R
AINSWORTH      CLOUDY    53  47  78 SW8       30.07S
O`NEILL        CLOUDY    55  43  62 S5        30.03S
ORD            PTCLDY    50  43  77 SW8       30.05
BROKEN BOW     CLEAR     54  45  71 N12       30.09R
VALENTINE NWR    N/A     50  47  88 SW6         N/A
HALSEY           N/A     53  46  77 CALM        N/A
BUTTE            N/A     53  42  65 CALM        N/A
CHAMBERS         N/A     53  42  67 CALM        N/A
EWING            N/A     54  44  69 CALM        N/A
$$

...OBSERVATIONS IN SOUTHWEST NEBRASKA AND FAR NORTHEAST COLORADO...

CITY           SKY/WX    TMP DP  RH WIND       PRES   REMARKS
WRAY           CLOUDY    50  48  93 SW3       30.18S
IMPERIAL       CLOUDY    54  47  77 NW6       30.15R
OGALLALA       CLOUDY    52  47  84 W6        30.16R
NORTH PLATTE   CLOUDY    48  44  86 NW7       30.12R
MCCOOK         PTCLDY    55  46  71 W7        30.12R
LEXINGTON      CLOUDY    55  48  76 W5        30.11R
STAPLETON        N/A     49  43  79 CALM        N/A
GOTHENBURG       N/A     60  44  56 CALM        N/A
CALLAWAY         N/A     56  45  66 W7          N/A
$$

...OBSERVATIONS IN CENTRAL LINCOLN COUNTY AREA...

CITY           SKY/WX    TMP DP  RH WIND       PRES   REMARKS
N.P. AIRPORT   CLOUDY    48  44  86 NW7       30.12R
N.P. DOWNTOWN    N/A     55  45  69 CALM        N/A
N.P. SOUTHEAST   N/A     56  44  64 NW3         N/A
N.P. HILLCREST   N/A     53  44  72 W7          N/A
$$

...SOME OBSERVATIONS FROM AROUND THE REGION...

CITY           SKY/WX    TMP DP  RH WIND       PRES   REMARKS
DENVER         LGT RAIN  48  44  86 N7        30.26R
LIMON          CLOUDY    48  44  86 N12       30.22R
ASPEN          CLOUDY    41  39  93 SW3       30.30R
LARAMIE        CLOUDY    40  35  83 NW6       30.28R
CASPER         CLOUDY    41  37  86 CALM      30.25R
CHEYENNE       CLOUDY    44  37  76 NW7       30.26R
SCOTTSBLUFF    MOCLDY    51  32  48 N15       30.21R
GRAND ISLAND   CLEAR     55  44  66 S7        30.09R
OMAHA          CLEAR     55  45  68 S6        30.09R
SIOUX FALLS    PTCLDY    51  45  79 S7        29.96F
PIERRE         CLEAR     56  41  57 W9        29.98R
RAPID CITY     PTCLDY    48  41  76 NW13      30.10S
BISMARCK       CLOUDY    55  36  48 CALM      29.95R
KANSAS CITY    CLEAR     60  43  53 CALM      30.12F
HILL CITY      MOCLDY    59  52  77 SE3       30.13R
WICHITA        PTCLDY    58  54  86 S6        30.14R
DODGE CITY     MOCLDY    57  50  77 S9        30.16R
OKLAHOMA CITY  MOCLDY    58  53  84 SE7       30.15R
DALLAS         CLOUDY    72  54  53 SE5       30.11R
AMARILLO       CLOUDY    62  39  42 SE17G28   30.13R
$$




USA.gov is the U.S. government's official web portal to all federal, state and local government web resources and services.